TimeEST,TemperatureF,Dew PointF,Humidity,Sea Level PressureIn,VisibilityMPH,Wind Direction,Wind SpeedMPH,Gust SpeedMPH,PrecipitationIn,Events,Conditions,WindDirDegrees,DateUTC
12:15 AM,37.4,33.8,87,29.97,10.0,East,5.8,-,N/A,,Overcast,80,2012-12-25 05:15:00
1:15 AM,39.2,35.6,87,29.95,10.0,East,6.9,-,N/A,,Overcast,80,2012-12-25 06:15:00
2:35 AM,39.2,37.4,93,29.94,10.0,ENE,10.4,-,N/A,,Overcast,70,2012-12-25 07:35:00
2:55 AM,41.0,37.4,87,29.94,10.0,East,9.2,-,N/A,,Overcast,80,2012-12-25 07:55:00
3:55 AM,41.0,37.4,87,29.93,10.0,ENE,9.2,-,N/A,,Overcast,70,2012-12-25 08:55:00
5:15 AM,42.8,37.4,81,29.92,10.0,ENE,11.5,-,N/A,,Overcast,70,2012-12-25 10:15:00
5:55 AM,42.8,37.4,81,29.91,10.0,ENE,12.7,18.4,N/A,,Overcast,70,2012-12-25 10:55:00
6:15 AM,42.8,39.2,87,29.91,10.0,ENE,11.5,16.1,N/A,,Overcast,70,2012-12-25 11:15:00
6:35 AM,42.8,39.2,87,29.91,10.0,ENE,12.7,17.3,N/A,,Overcast,60,2012-12-25 11:35:00
6:55 AM,42.8,39.2,87,29.92,10.0,ENE,13.8,18.4,N/A,,Overcast,60,2012-12-25 11:55:00
8:15 AM,37.4,35.6,93,29.94,5.0,NE,11.5,19.6,N/A,,Overcast,40,2012-12-25 13:15:00
8:35 AM,37.4,35.6,93,29.95,3.0,NE,13.8,18.4,N/A,,Overcast,40,2012-12-25 13:35:00
8:55 AM,37.4,33.8,87,29.95,5.0,NNE,12.7,20.7,N/A,,Overcast,30,2012-12-25 13:55:00
9:15 AM,37.4,35.6,93,29.96,8.0,NNE,15.0,21.9,N/A,,Overcast,30,2012-12-25 14:15:00
9:35 AM,37.4,35.6,93,29.98,9.0,NNE,11.5,-,N/A,,Overcast,30,2012-12-25 14:35:00
10:35 AM,37.4,33.8,87,29.98,5.0,NNE,10.4,16.1,N/A,,Overcast,30,2012-12-25 15:35:00
10:55 AM,37.4,33.8,87,29.98,6.0,NNE,12.7,18.4,N/A,,Overcast,20,2012-12-25 15:55:00
11:15 AM,37.4,33.8,87,29.98,7.0,NNE,10.4,-,N/A,,Overcast,20,2012-12-25 16:15:00
11:35 AM,37.4,33.8,87,29.97,9.0,NNE,11.5,-,N/A,,Overcast,20,2012-12-25 16:35:00
11:55 AM,37.4,33.8,87,29.97,10.0,North,9.2,-,N/A,,Overcast,10,2012-12-25 16:55:00
12:15 PM,37.4,33.8,87,29.97,10.0,North,11.5,-,N/A,,Overcast,10,2012-12-25 17:15:00
12:35 PM,37.4,33.8,87,29.97,10.0,North,10.4,-,N/A,,Overcast,10,2012-12-25 17:35:00
12:55 PM,37.4,33.8,87,29.97,5.0,North,8.1,-,N/A,,Overcast,360,2012-12-25 17:55:00
1:15 PM,37.4,33.8,87,29.97,7.0,North,8.1,-,N/A,,Overcast,360,2012-12-25 18:15:00
1:35 PM,37.4,33.8,87,29.97,5.0,North,10.4,17.3,N/A,,Overcast,360,2012-12-25 18:35:00
1:55 PM,37.4,33.8,87,29.99,10.0,North,8.1,-,N/A,,Overcast,360,2012-12-25 18:55:00
2:15 PM,37.4,33.8,87,30.01,5.0,NNW,10.4,16.1,N/A,,Overcast,340,2012-12-25 19:15:00
2:35 PM,37.4,33.8,87,30.03,10.0,NNW,9.2,-,N/A,,Overcast,340,2012-12-25 19:35:00
2:55 PM,37.4,33.8,87,30.04,10.0,NNW,11.5,16.1,N/A,,Overcast,330,2012-12-25 19:55:00
3:15 PM,37.4,32.0,81,30.04,10.0,NNW,9.2,-,N/A,,Overcast,340,2012-12-25 20:15:00
3:35 PM,37.4,33.8,87,30.04,10.0,North,9.2,-,N/A,,Overcast,350,2012-12-25 20:35:00
4:15 PM,37.4,30.2,75,30.05,10.0,North,11.5,16.1,N/A,,Overcast,350,2012-12-25 21:15:00
4:55 PM,37.4,30.2,75,30.07,10.0,NNW,10.4,17.3,N/A,,Overcast,340,2012-12-25 21:55:00
5:15 PM,37.4,28.4,70,30.08,10.0,North,11.5,17.3,N/A,,Overcast,350,2012-12-25 22:15:00
5:35 PM,37.4,28.4,70,30.08,10.0,North,15.0,19.6,N/A,,Overcast,350,2012-12-25 22:35:00
5:55 PM,35.6,28.4,75,30.10,10.0,NNW,11.5,19.6,N/A,,Mostly Cloudy,340,2012-12-25 22:55:00
6:15 PM,35.6,26.6,70,30.12,10.0,NNW,11.5,18.4,N/A,,Mostly Cloudy,340,2012-12-25 23:15:00
6:35 PM,35.6,26.6,70,30.13,10.0,North,12.7,19.6,N/A,,Scattered Clouds,350,2012-12-25 23:35:00
6:55 PM,35.6,24.8,65,30.14,10.0,North,12.7,19.6,N/A,,Clear,350,2012-12-25 23:55:00
7:15 PM,35.6,24.8,65,30.14,10.0,NNW,15.0,19.6,N/A,,Clear,340,2012-12-26 00:15:00
7:35 PM,35.6,24.8,65,30.14,10.0,NNW,10.4,25.3,N/A,,Clear,330,2012-12-26 00:35:00
7:55 PM,35.6,23.0,60,30.14,10.0,North,16.1,23.0,N/A,,Clear,350,2012-12-26 00:55:00
8:15 PM,33.8,23.0,65,30.14,10.0,North,12.7,19.6,N/A,,Clear,350,2012-12-26 01:15:00
8:35 PM,33.8,23.0,65,30.15,10.0,North,13.8,18.4,N/A,,Clear,350,2012-12-26 01:35:00
8:55 PM,33.8,23.0,65,30.16,10.0,North,13.8,19.6,N/A,,Clear,350,2012-12-26 01:55:00
9:55 PM,33.8,21.2,60,30.18,10.0,North,12.7,19.6,N/A,,Clear,360,2012-12-26 02:55:00
10:35 PM,33.8,21.2,60,30.18,10.0,North,15.0,20.7,N/A,,Clear,360,2012-12-26 03:35:00
11:15 PM,32.0,21.2,64,30.19,10.0,North,13.8,20.7,N/A,,Clear,10,2012-12-26 04:15:00
11:35 PM,32.0,21.2,64,30.19,10.0,North,13.8,19.6,N/A,,Clear,10,2012-12-26 04:35:00